TimeCST,TemperatureF,Dew PointF,Humidity,Sea Level PressureIn,VisibilityMPH,Wind Direction,Wind SpeedMPH,Gust SpeedMPH,PrecipitationIn,Events,Conditions,WindDirDegrees,DateUTC
12:21 AM,37.4,37.4,100,29.91,10.0,SSE,18.4,23.0,N/A,,Overcast,150,2013-02-10 06:21:00
12:50 AM,37.4,37.4,100,29.91,10.0,SSE,13.8,23.0,N/A,Rain,Light Rain,150,2013-02-10 06:50:00
12:55 AM,38.1,37.2,97,29.91,10.0,SSE,15.0,23.0,0.00,Rain,Light Rain,150,2013-02-10 06:55:00
1:01 AM,37.4,37.4,100,29.92,9.0,SSE,13.8,20.7,N/A,Rain,Light Rain,160,2013-02-10 07:01:00
1:11 AM,37.4,37.4,100,29.90,10.0,SSE,11.5,-,N/A,,Overcast,150,2013-02-10 07:11:00
1:17 AM,39.2,37.4,93,29.91,10.0,SSE,11.5,-,N/A,,Overcast,160,2013-02-10 07:17:00
1:26 AM,39.2,37.4,93,29.90,10.0,SSE,13.8,19.6,N/A,,Overcast,150,2013-02-10 07:26:00
1:55 AM,39.0,38.1,97,29.87,10.0,SSE,16.1,21.9,0.01,,Overcast,150,2013-02-10 07:55:00
2:30 AM,39.2,39.2,100,29.85,10.0,SSE,13.8,-,N/A,,Overcast,150,2013-02-10 08:30:00
2:37 AM,39.2,39.2,100,29.84,10.0,SSE,17.3,-,N/A,,Overcast,160,2013-02-10 08:37:00
2:55 AM,40.3,38.3,93,29.83,10.0,SSE,13.8,21.9,N/A,,Overcast,150,2013-02-10 08:55:00
3:46 AM,41.0,39.2,93,29.80,10.0,SSE,8.1,-,N/A,,Overcast,150,2013-02-10 09:46:00
3:55 AM,41.2,39.0,92,29.81,10.0,SSE,6.9,-,N/A,,Overcast,160,2013-02-10 09:55:00
4:07 AM,41.0,39.2,93,29.82,9.0,SSE,9.2,-,N/A,,Light Drizzle,160,2013-02-10 10:07:00
4:19 AM,41.0,41.0,100,29.81,8.0,Variable,6.9,-,N/A,Rain,Light Rain,0,2013-02-10 10:19:00
4:31 AM,41.0,41.0,100,29.80,7.0,SSE,11.5,-,N/A,Rain,Light Rain,160,2013-02-10 10:31:00
4:37 AM,41.0,41.0,100,29.79,5.0,SSE,10.4,-,N/A,Rain,Light Rain,150,2013-02-10 10:37:00
4:46 AM,41.0,41.0,100,29.78,5.0,SSE,11.5,-,N/A,,Light Drizzle,150,2013-02-10 10:46:00
4:48 AM,41.0,41.0,100,29.78,5.0,SSE,12.7,-,N/A,,Overcast,150,2013-02-10 10:48:00
4:55 AM,41.5,41.2,99,29.76,5.0,SSE,13.8,-,0.01,,Overcast,150,2013-02-10 10:55:00
4:57 AM,41.0,41.0,100,29.76,5.0,SE,15.0,-,N/A,Rain,Light Rain,140,2013-02-10 10:57:00
5:10 AM,42.8,42.8,100,29.77,5.0,SSE,15.0,25.3,N/A,,Overcast,160,2013-02-10 11:10:00
5:36 AM,42.8,42.8,100,29.75,5.0,SSE,16.1,23.0,N/A,,Overcast,150,2013-02-10 11:36:00
5:45 AM,42.8,42.8,100,29.76,6.0,SSE,15.0,24.2,N/A,Rain,Light Rain,160,2013-02-10 11:45:00
5:52 AM,42.8,42.8,100,29.76,6.0,South,13.8,23.0,N/A,Rain,Light Rain,180,2013-02-10 11:52:00
5:55 AM,43.5,43.5,100,29.77,6.0,South,13.8,23.0,0.01,Rain,Light Rain,180,2013-02-10 11:55:00
5:59 AM,44.6,44.6,100,29.77,6.0,South,16.1,21.9,N/A,Rain-Thunderstorm,Light Thunderstorms and Rain,170,2013-02-10 11:59:00
6:14 AM,44.6,44.6,100,29.76,5.0,SSE,15.0,24.2,N/A,,Overcast,160,2013-02-10 12:14:00
6:40 AM,44.6,44.6,100,29.74,3.0,SSE,19.6,27.6,N/A,Rain-Thunderstorm,Rain,150,2013-02-10 12:40:00
6:44 AM,44.6,44.6,100,29.74,4.0,SSE,20.7,27.6,N/A,Rain-Thunderstorm,Rain,150,2013-02-10 12:44:00
6:55 AM,44.6,44.6,100,29.73,5.0,SSE,23.0,31.1,0.16,Rain,Light Rain,150,2013-02-10 12:55:00
7:02 AM,44.6,44.6,100,29.72,9.0,SSE,20.7,28.8,N/A,,Overcast,150,2013-02-10 13:02:00
7:04 AM,44.6,44.6,100,29.72,9.0,SSE,25.3,34.5,N/A,Rain,Light Rain,150,2013-02-10 13:04:00
7:13 AM,44.6,44.6,100,29.70,4.0,SSE,24.2,34.5,N/A,,Overcast,150,2013-02-10 13:13:00
7:16 AM,44.6,44.6,100,29.70,3.0,SSE,20.7,32.2,N/A,,Overcast,150,2013-02-10 13:16:00
7:19 AM,44.6,44.6,100,29.70,3.0,SSE,24.2,32.2,N/A,,Overcast,150,2013-02-10 13:19:00
7:24 AM,44.6,44.6,100,29.70,4.0,SSE,19.6,32.2,N/A,Rain,Light Rain,150,2013-02-10 13:24:00
7:35 AM,46.4,46.4,100,29.69,10.0,SSE,13.8,26.5,N/A,,Mostly Cloudy,150,2013-02-10 13:35:00
7:55 AM,45.7,45.7,100,29.70,10.0,SSE,17.3,24.2,0.07,,Overcast,150,2013-02-10 13:55:00
8:16 AM,46.4,46.4,100,29.68,10.0,SSE,21.9,29.9,N/A,Rain,Light Rain,150,2013-02-10 14:16:00
8:18 AM,46.4,46.4,100,29.68,9.0,SSE,20.7,29.9,N/A,Rain,Light Rain,150,2013-02-10 14:18:00
8:34 AM,46.4,46.4,100,29.67,10.0,South,11.5,28.8,N/A,,Mostly Cloudy,170,2013-02-10 14:34:00
8:39 AM,46.4,46.4,100,29.66,10.0,SSE,12.7,23.0,N/A,,Mostly Cloudy,160,2013-02-10 14:39:00
8:43 AM,48.2,48.2,100,29.65,10.0,SSE,13.8,23.0,N/A,,Mostly Cloudy,160,2013-02-10 14:43:00
8:55 AM,48.0,48.0,100,29.65,10.0,South,13.8,23.0,0.01,,Mostly Cloudy,170,2013-02-10 14:55:00
9:27 AM,48.2,48.2,100,29.68,10.0,South,10.4,24.2,N/A,Rain,Light Rain,170,2013-02-10 15:27:00
9:40 AM,48.2,48.2,100,29.67,10.0,South,13.8,21.9,N/A,,Overcast,170,2013-02-10 15:40:00
9:55 AM,49.1,49.1,100,29.67,10.0,SSE,15.0,21.9,0.00,,Overcast,160,2013-02-10 15:55:00
9:58 AM,50.0,50.0,100,29.66,10.0,SSE,13.8,21.9,N/A,,Overcast,160,2013-02-10 15:58:00
10:09 AM,50.0,50.0,100,29.65,10.0,SSE,16.1,29.9,N/A,,Overcast,160,2013-02-10 16:09:00
10:19 AM,50.0,50.0,100,29.65,10.0,South,17.3,25.3,N/A,,Overcast,170,2013-02-10 16:19:00
10:25 AM,50.0,50.0,100,29.65,10.0,South,15.0,27.6,N/A,,Overcast,170,2013-02-10 16:25:00
10:36 AM,51.8,51.8,100,29.65,10.0,South,11.5,25.3,N/A,,Overcast,170,2013-02-10 16:36:00
10:39 AM,51.8,51.8,100,29.65,10.0,South,16.1,25.3,N/A,,Overcast,170,2013-02-10 16:39:00
10:51 AM,51.8,50.0,94,29.65,10.0,South,13.8,27.6,N/A,,Overcast,180,2013-02-10 16:51:00
10:55 AM,51.3,50.9,99,29.65,10.0,South,15.0,25.3,N/A,,Overcast,170,2013-02-10 16:55:00
11:29 AM,51.8,51.8,100,29.64,10.0,South,11.5,19.6,N/A,,Overcast,180,2013-02-10 17:29:00
11:39 AM,51.8,51.8,100,29.64,10.0,South,10.4,20.7,N/A,,Overcast,190,2013-02-10 17:39:00
11:48 AM,53.6,51.8,94,29.64,10.0,South,15.0,25.3,N/A,,Overcast,190,2013-02-10 17:48:00
11:55 AM,52.9,52.3,98,29.64,10.0,SSW,10.4,25.3,N/A,,Overcast,200,2013-02-10 17:55:00
12:34 PM,55.4,51.8,88,29.62,10.0,South,16.1,25.3,N/A,,Overcast,190,2013-02-10 18:34:00
12:49 PM,57.2,51.8,82,29.61,10.0,SSW,12.7,23.0,N/A,,Mostly Cloudy,210,2013-02-10 18:49:00
12:50 PM,57.2,51.8,82,29.61,10.0,SSW,11.5,23.0,N/A,,Mostly Cloudy,210,2013-02-10 18:50:00
12:52 PM,57.2,51.8,82,29.61,10.0,SSW,12.7,23.0,N/A,,Mostly Cloudy,200,2013-02-10 18:52:00
12:55 PM,57.2,52.2,83,29.60,10.0,SSW,10.4,23.0,N/A,,Mostly Cloudy,200,2013-02-10 18:55:00
1:08 PM,57.2,51.8,82,29.60,10.0,SSW,16.1,24.2,N/A,,Mostly Cloudy,210,2013-02-10 19:08:00
1:21 PM,59.0,51.8,77,29.60,10.0,SW,12.7,24.2,N/A,,Mostly Cloudy,220,2013-02-10 19:21:00
1:28 PM,59.0,50.0,72,29.60,10.0,SSW,10.4,21.9,N/A,,Mostly Cloudy,210,2013-02-10 19:28:00
1:55 PM,61.2,48.9,64,29.58,10.0,SSW,15.0,20.7,N/A,,Scattered Clouds,210,2013-02-10 19:55:00
2:55 PM,61.9,34.3,36,29.60,10.0,SW,16.1,31.1,N/A,,Clear,230,2013-02-10 20:55:00
3:55 PM,59.7,26.1,28,29.64,10.0,WSW,9.2,32.2,N/A,,Clear,240,2013-02-10 21:55:00
4:55 PM,57.4,25.2,29,29.66,10.0,SW,17.3,25.3,N/A,,Clear,230,2013-02-10 22:55:00
5:55 PM,55.2,26.6,33,29.69,10.0,SW,11.5,17.3,N/A,,Clear,220,2013-02-10 23:55:00
6:55 PM,53.4,27.3,37,29.73,10.0,SW,11.5,21.9,N/A,,Clear,230,2013-02-11 00:55:00
7:55 PM,51.3,27.3,40,29.77,10.0,WSW,9.2,-,N/A,,Clear,240,2013-02-11 01:55:00
8:55 PM,50.0,27.9,42,29.79,10.0,WSW,9.2,23.0,N/A,,Clear,250,2013-02-11 02:55:00
9:55 PM,47.1,28.8,49,29.82,10.0,WSW,13.8,28.8,N/A,,Clear,250,2013-02-11 03:55:00
10:55 PM,42.3,26.4,54,29.88,10.0,West,13.8,28.8,N/A,,Clear,260,2013-02-11 04:55:00
11:55 PM,40.5,26.8,58,29.92,10.0,West,17.3,33.4,N/A,,Clear,260,2013-02-11 05:55:00